N76NA KDCA-KANP

Flight info

Callsign N76NA
Flight time 0h 26m
Altitude 5000
Route AMRTN
Aircraft C172/L-V/N

Departure

Time 2026-04-16 02:29
Airport Ronald Reagan Washington National Airport (KDCA)

Arrival

Time 2026-04-16 02:56
Airport Lee Airport (KANP)
Time Latitude Longitude Altitude Speed Heading
2026-04-16 02:09 38.84647 -77.04601 20 ft 0 kts 321°
2026-04-16 02:14 38.84647 -77.04603 20 ft 0 kts 250°
2026-04-16 02:14 38.84634 -77.04602 20 ft 0 kts 149°
2026-04-16 02:15 38.84613 -77.04585 19 ft 11 kts 151°
2026-04-16 02:15 38.84588 -77.04579 18 ft 0 kts 183°
2026-04-16 02:15 38.84566 -77.04587 17 ft 7 kts 211°
2026-04-16 02:16 38.84531 -77.04645 18 ft 11 kts 231°
2026-04-16 02:16 38.84441 -77.04676 17 ft 17 kts 172°
2026-04-16 02:16 38.84343 -77.04628 20 ft 15 kts 132°
2026-04-16 02:16 38.84313 -77.04563 18 ft 0 kts 82°
2026-04-16 02:17 38.84313 -77.04562 18 ft 1 kts 79°
2026-04-16 02:17 38.84334 -77.04485 18 ft 16 kts 85°
2026-04-16 02:17 38.84347 -77.04332 20 ft 16 kts 99°
2026-04-16 02:17 38.84376 -77.04234 20 ft 13 kts
2026-04-16 02:18 38.84473 -77.04271 19 ft 16 kts 334°
2026-04-16 02:18 38.84507 -77.04268 18 ft 0 kts 36°
2026-04-16 02:18 38.84508 -77.04268 18 ft 0 kts 36°
2026-04-16 02:23 38.84518 -77.04230 19 ft 8 kts 87°
2026-04-16 02:23 38.84504 -77.04161 20 ft 9 kts 135°
2026-04-16 02:23 38.84431 -77.04134 20 ft 12 kts 160°
2026-04-16 02:23 38.84351 -77.04121 19 ft 12 kts 206°
2026-04-16 02:24 38.84273 -77.04169 19 ft 11 kts 205°
2026-04-16 02:24 38.84204 -77.04212 19 ft 12 kts 206°
2026-04-16 02:24 38.84187 -77.04222 19 ft 0 kts 203°
2026-04-16 02:28 38.84147 -77.04219 19 ft 13 kts 143°
2026-04-16 02:28 38.84164 -77.04113 21 ft 17 kts 20°
2026-04-16 02:28 38.84426 -77.03955 19 ft 66 kts 24°
2026-04-16 02:28 38.84954 -77.03636 68 ft 94 kts 27°
2026-04-16 02:29 38.85527 -77.03272 284 ft 94 kts 25°
2026-04-16 02:29 38.86060 -77.03088 632 ft 73 kts 357°
2026-04-16 02:29 38.86542 -77.02823 784 ft 75 kts 26°
2026-04-16 02:29 38.87015 -77.02451 845 ft 90 kts 67°
2026-04-16 02:30 38.87119 -77.01723 1028 ft 84 kts 85°
2026-04-16 02:30 38.87304 -77.00967 1196 ft 87 kts 77°
2026-04-16 02:30 38.87534 -77.00239 1358 ft 88 kts 54°
2026-04-16 02:30 38.87757 -76.99504 1495 ft 90 kts 79°
2026-04-16 02:31 38.87932 -76.98792 1667 ft 87 kts 81°
2026-04-16 02:31 38.88107 -76.97938 1718 ft 105 kts 83°
2026-04-16 02:31 38.88313 -76.96986 1855 ft 108 kts 81°
2026-04-16 02:31 38.88498 -76.96033 2035 ft 109 kts 80°
2026-04-16 02:32 38.88718 -76.95086 2247 ft 105 kts 81°
2026-04-16 02:32 38.88975 -76.94180 2398 ft 111 kts 72°
2026-04-16 02:32 38.89275 -76.93324 2577 ft 110 kts 75°
2026-04-16 02:32 38.89556 -76.92430 2717 ft 110 kts 66°
2026-04-16 02:33 38.89817 -76.91530 2877 ft 108 kts 83°
2026-04-16 02:33 38.89996 -76.90595 3031 ft 107 kts 80°
2026-04-16 02:33 38.90197 -76.89676 3184 ft 107 kts 78°
2026-04-16 02:33 38.90403 -76.88744 3333 ft 110 kts 79°
2026-04-16 02:34 38.90620 -76.87795 3487 ft 111 kts 78°
2026-04-16 02:34 38.90667 -76.86859 3641 ft 105 kts 111°
2026-04-16 02:34 38.90571 -76.85931 3775 ft 105 kts 107°
2026-04-16 02:34 38.90494 -76.85001 3913 ft 104 kts 103°
2026-04-16 02:35 38.90435 -76.84049 4000 ft 113 kts 101°
2026-04-16 02:35 38.90376 -76.82978 4012 ft 127 kts 100°
2026-04-16 02:35 38.90323 -76.81805 4015 ft 136 kts 99°
2026-04-16 02:35 38.90272 -76.80566 4011 ft 139 kts 98°
2026-04-16 02:36 38.90226 -76.79332 4006 ft 137 kts 99°
2026-04-16 02:36 38.90181 -76.78117 4006 ft 136 kts 99°
2026-04-16 02:36 38.90137 -76.76911 4006 ft 135 kts 99°
2026-04-16 02:36 38.90093 -76.75709 4003 ft 135 kts 99°
2026-04-16 02:37 38.90049 -76.74506 4003 ft 135 kts 99°
2026-04-16 02:37 38.90004 -76.73296 4003 ft 136 kts 99°
2026-04-16 02:37 38.89964 -76.72077 4000 ft 138 kts 93°
2026-04-16 02:37 38.90168 -76.70859 3999 ft 140 kts 79°
2026-04-16 02:38 38.90398 -76.69656 3995 ft 138 kts 80°
2026-04-16 02:38 38.90635 -76.68467 3993 ft 137 kts 79°
2026-04-16 02:38 38.90871 -76.67285 3990 ft 137 kts 79°
2026-04-16 02:38 38.91110 -76.66097 3991 ft 138 kts 79°
2026-04-16 02:39 38.91347 -76.64902 4011 ft 138 kts 79°
2026-04-16 02:39 38.91581 -76.63707 4011 ft 138 kts 79°
2026-04-16 02:39 38.91813 -76.62510 4015 ft 138 kts 79°
2026-04-16 02:39 38.92040 -76.61328 4014 ft 138 kts 79°
2026-04-16 02:40 38.92274 -76.60129 4016 ft 138 kts 79°
2026-04-16 02:40 38.92511 -76.58938 4016 ft 138 kts 79°
2026-04-16 02:40 38.92743 -76.57739 4014 ft 138 kts 80°
2026-04-16 02:40 38.92969 -76.56534 4013 ft 139 kts 79°
2026-04-16 02:41 38.93194 -76.55328 4014 ft 139 kts 79°
2026-04-16 02:41 38.93428 -76.54124 4016 ft 138 kts 79°
2026-04-16 02:41 38.93663 -76.52924 4007 ft 138 kts 79°
2026-04-16 02:41 38.93896 -76.51723 4009 ft 139 kts 79°
2026-04-16 02:42 38.94125 -76.50509 4010 ft 140 kts 79°
2026-04-16 02:42 38.94360 -76.49294 4010 ft 140 kts 79°
2026-04-16 02:42 38.94594 -76.48082 4009 ft 139 kts 79°
2026-04-16 02:42 38.94827 -76.46878 4005 ft 139 kts 79°
2026-04-16 02:43 38.95059 -76.45673 4007 ft 139 kts 79°
2026-04-16 02:43 38.95287 -76.44466 4005 ft 140 kts 79°
2026-04-16 02:43 38.95523 -76.43248 4004 ft 140 kts 79°
2026-04-16 02:43 38.95760 -76.42036 3998 ft 140 kts 79°
2026-04-16 02:44 38.95998 -76.40828 3994 ft 139 kts 79°
2026-04-16 02:44 38.96228 -76.39620 3994 ft 139 kts 79°
2026-04-16 02:44 38.96450 -76.38428 4000 ft 139 kts 79°
2026-04-16 02:44 38.96677 -76.37217 3981 ft 141 kts 79°
2026-04-16 02:45 38.96916 -76.35969 3872 ft 147 kts 79°
2026-04-16 02:45 38.97082 -76.34670 3748 ft 147 kts 104°
2026-04-16 02:45 38.96576 -76.33673 3629 ft 127 kts 163°
2026-04-16 02:45 38.95783 -76.33620 3509 ft 111 kts 200°
2026-04-16 02:46 38.95280 -76.33736 3432 ft 111 kts 199°
2026-04-16 02:46 38.94518 -76.33905 3311 ft 111 kts 200°
2026-04-16 02:46 38.93746 -76.34037 3186 ft 115 kts 191°
2026-04-16 02:46 38.92940 -76.33706 3049 ft 125 kts 170°
2026-04-16 02:47 38.92136 -76.33277 2919 ft 125 kts 171°
2026-04-16 02:47 38.91361 -76.33213 2797 ft 106 kts 209°
2026-04-16 02:47 38.90632 -76.33428 2684 ft 107 kts 204°
2026-04-16 02:47 38.89999 -76.33847 2587 ft 101 kts 223°
2026-04-16 02:48 38.89533 -76.34507 2505 ft 99 kts 240°
2026-04-16 02:48 38.89271 -76.35328 2377 ft 101 kts 255°
2026-04-16 02:48 38.89240 -76.36238 2235 ft 105 kts 271°
2026-04-16 02:48 38.89438 -76.37155 2094 ft 108 kts 280°
2026-04-16 02:49 38.89663 -76.38064 2013 ft 104 kts 280°
2026-04-16 02:49 38.89876 -76.38929 2006 ft 100 kts 279°
2026-04-16 02:49 38.90082 -76.39768 1997 ft 98 kts 279°
2026-04-16 02:49 38.90285 -76.40595 1985 ft 98 kts 279°
2026-04-16 02:50 38.90494 -76.41444 1918 ft 101 kts 279°
2026-04-16 02:50 38.90710 -76.42315 1837 ft 103 kts 279°
2026-04-16 02:50 38.90929 -76.43193 1777 ft 103 kts 279°
2026-04-16 02:50 38.91148 -76.44075 1716 ft 103 kts 279°
2026-04-16 02:51 38.91361 -76.44935 1705 ft 99 kts 278°
2026-04-16 02:51 38.91565 -76.45764 1701 ft 96 kts 278°
2026-04-16 02:51 38.91765 -76.46573 1702 ft 94 kts 278°
2026-04-16 02:51 38.91959 -76.47349 1694 ft 84 kts 278°
2026-04-16 02:52 38.92118 -76.47975 1695 ft 65 kts 275°
2026-04-16 02:52 38.92242 -76.48475 1685 ft 52 kts 272°
2026-04-16 02:52 38.92343 -76.48893 1651 ft 47 kts 271°
2026-04-16 02:52 38.92448 -76.49331 1534 ft 58 kts 277°
2026-04-16 02:53 38.92636 -76.49872 1412 ft 69 kts 282°
2026-04-16 02:53 38.92828 -76.50465 1344 ft 71 kts 275°
2026-04-16 02:53 38.92986 -76.51114 1244 ft 78 kts 278°
2026-04-16 02:53 38.93156 -76.51749 1218 ft 76 kts 277°
2026-04-16 02:54 38.93338 -76.52395 1188 ft 77 kts 289°
2026-04-16 02:54 38.93548 -76.53018 1119 ft 76 kts 278°
2026-04-16 02:54 38.93665 -76.53616 1104 ft 59 kts 271°
2026-04-16 02:54 38.93740 -76.54111 948 ft 57 kts 269°
2026-04-16 02:55 38.93782 -76.54652 698 ft 65 kts 269°
2026-04-16 02:55 38.93885 -76.55209 504 ft 65 kts 287°
2026-04-16 02:55 38.94042 -76.55809 256 ft 75 kts 284°
2026-04-16 02:55 38.94185 -76.56411 90 ft 69 kts 285°
2026-04-16 02:56 38.94305 -76.56924 41 ft 44 kts 289°
2026-04-16 02:56 38.94359 -76.57123 42 ft 15 kts 284°
2026-04-16 02:56 38.94376 -76.57208 43 ft 7 kts 322°
2026-04-16 02:56 38.94380 -76.57260 43 ft 5 kts 202°
2026-04-16 02:57 38.94357 -76.57247 43 ft 0 kts 105°
2026-04-16 02:57 38.94353 -76.57224 44 ft 7 kts 107°
2026-04-16 02:57 38.94328 -76.57124 43 ft 15 kts 111°
2026-04-16 02:58 38.94291 -76.56974 42 ft 18 kts 108°
2026-04-16 02:58 38.94256 -76.56835 41 ft 16 kts 107°
2026-04-16 02:58 38.94224 -76.56705 38 ft 15 kts 106°
2026-04-16 02:58 38.94195 -76.56586 37 ft 13 kts 108°
2026-04-16 02:59 38.94170 -76.56484 37 ft 12 kts 108°
2026-04-16 02:59 38.94145 -76.56431 36 ft 6 kts 166°
2026-04-16 02:59 38.94122 -76.56446 37 ft 3 kts 228°
2026-04-16 02:59 38.94101 -76.56480 38 ft 5 kts 251°
2026-04-16 03:00 38.94103 -76.56492 38 ft 0 kts 309°
2026-04-16 03:00 38.94097 -76.56484 38 ft 0 kts 309°